GW3250 Weather Reports


time (UTC)temp
C
wind
direction
speed
KPH
gust
KPH
rain 1hr
cm
rain 24hr
cm
rain mn
cm
humidity
%
barometer
mb
20260505184356 27 291 8.0 11.3 0.00 0.00 0.00 35 1005.3
20260505183853 26 252 6.4 9.7 0.00 0.00 0.00 34 1005.1
20260505183349 26 271 6.4 9.7 0.00 0.00 0.00 36 1005.4
20260505182846 27 254 6.4 11.3 0.00 0.00 0.00 33 1005.2
20260505182343 26 223 9.7 12.9 0.00 0.00 0.00 34 1005.5
20260505181840 27 253 6.4 9.7 0.00 0.00 0.00 34 1005.4
20260505181337 27 211 4.8 6.4 0.00 0.00 0.00 37 1005.2
20260505180833 26 183 9.7 11.3 0.00 0.00 0.00 36 1005.4
20260505180330 26 5 4.8 6.4 0.00 0.00 0.00 38 1005.2
20260505175826 26 274 8.0 9.7 0.00 0.00 0.00 39 1005.2
20260505175323 26 210 8.0 9.7 0.00 0.00 0.00 39 1005.5
20260505174819 26 209 11.3 12.9 0.00 0.00 0.00 39 1005.3
20260505174317 25 191 4.8 4.8 0.00 0.00 0.00 38 1005.3
20260505173813 26 262 9.7 11.3 0.00 0.00 0.00 37 1005.7
20260505173309 26 203 3.2 3.2 0.00 0.00 0.00 38 1005.4
20260505172807 26 237 3.2 4.8 0.00 0.00 0.00 37 1005.5
20260505172306 26 237 8.0 12.9 0.00 0.00 0.00 38 1005.6
20260505171758 26 201 4.8 6.4 0.00 0.00 0.00 37 1005.6
20260505171255 26 233 8.0 12.9 0.00 0.00 0.00 39 1005.8
20260505170752 26 208 6.4 11.3 0.00 0.00 0.00 40 1005.5
20260505170249 27 203 8.0 12.9 0.00 0.00 0.00 40 1005.5
20260505165744 25 244 3.2 4.8 0.00 0.00 0.00 42 1005.6
20260505165240 26 266 9.7 11.3 0.00 0.00 0.00 39 1005.7
20260505164736 25 213 4.8 6.4 0.00 0.00 0.00 41 1005.7
20260505164233 26 148 6.4 11.3 0.00 0.00 0.00 41 1005.9
20260505163732 26 207 3.2 6.4 0.00 0.00 0.00 42 1006.1
20260505163230 25 280 8.0 11.3 0.00 0.00 0.00 43 1006.0
20260505162727 25 225 0.0 1.6 0.00 0.00 0.00 46 1006.0
20260505162224 25 122 6.4 11.3 0.00 0.00 0.00 42 1006.3
20260505161720 25 58 3.2 6.4 0.00 0.00 0.00 44 1006.3
20260505161218 25 234 6.4 12.9 0.00 0.00 0.00 44 1006.4
20260505160715 25 223 4.8 6.4 0.00 0.00 0.00 45 1006.7
20260505160213 25 219 4.8 6.4 0.00 0.00 0.00 46 1006.6
20260505153152 23 197 3.2 4.8 0.00 0.00 0.00 46 1006.8
20260505152649 23 224 4.8 4.8 0.00 0.00 0.00 49 1007.0
20260505152145 23 181 4.8 9.7 0.00 0.00 0.00 49 1006.8
20260505151640 23 174 1.6 1.6 0.00 0.00 0.00 51 1007.2
20260505151138 23 218 4.8 6.4 0.00 0.00 0.00 50 1007.2
20260505150633 23 162 1.6 3.2 0.00 0.00 0.00 52 1006.9
20260505150131 22 266 4.8 6.4 0.00 0.00 0.00 50 1006.8
20260505140559 22 134 3.2 3.2 0.00 0.00 0.00 52 1007.5
20260505125013 18 106 1.6 3.2 0.00 0.00 0.00 63 1007.3
20260505124509 18 172 3.2 4.8 0.00 0.00 0.00 66 1007.3
20260505124006 18 201 1.6 1.6 0.00 0.00 0.00 66 1007.5
20260505123503 17 244 3.2 3.2 0.00 0.00 0.00 67 1007.6
20260505122958 17 327 4.8 9.7 0.00 0.00 0.00 68 1007.3
20260505122456 17 308 3.2 4.8 0.00 0.00 0.00 68 1007.6
20260505121953 16 229 1.6 1.6 0.00 0.00 0.00 71 1007.4
20260505121449 16 131 1.6 3.2 0.00 0.00 0.00 74 1007.4
20260505120945 16 3 3.2 4.8 0.00 0.00 0.00 74 1007.5
20260505120442 16 200 4.8 6.4 0.00 0.00 0.00 72 1007.4
20260505115941 16 162 1.6 1.6 0.00 0.00 0.00 74 1007.4
20260505115438 15 186 1.6 1.6 0.00 0.00 0.00 75 1007.2
20260505114936 15 232 4.8 4.8 0.00 0.00 0.00 73 1007.3
20260505114432 15 221 6.4 9.7 0.00 0.00 0.00 73 1007.3
20260505113928 15 223 3.2 6.4 0.00 0.00 0.00 74 1007.4
20260505113425 15 218 3.2 3.2 0.00 0.00 0.00 74 1007.4
20260505112920 15 213 1.6 1.6 0.00 0.00 0.00 77 1007.7
20260505112418 14 202 1.6 1.6 0.00 0.00 0.00 77 1007.3
20260505111914 13 197 0.0 1.6 0.00 0.00 0.00 78 1007.5
20260505111409 13 206 3.2 3.2 0.00 0.00 0.00 79 1007.4
20260505110906 13 184 0.0 0.0 0.00 0.00 0.00 80 1007.4
20260505110403 12 141 1.6 1.6 0.00 0.00 0.00 84 1007.2
20260505101833 11 133 0.0 1.6 0.00 0.00 0.00 89 1007.0
20260505101328 11 133 1.6 1.6 0.00 0.00 0.00 89 1007.2
20260505100824 12 154 1.6 1.6 0.00 0.00 0.00 88 1007.2
20260505100321 12 154 1.6 1.6 0.00 0.00 0.00 79 1007.2
20260505095817 11 156 3.2 3.2 0.00 0.00 0.00 89 1006.9
20260505095315 10 156 1.6 1.6 0.00 0.00 0.00 93 1006.9
20260505094810 10 156 1.6 1.6 0.00 0.00 0.00 94 1007.0
20260505094308 10 156 0.0 0.0 0.00 0.00 0.00 95 1007.0
20260505093803 10 156 1.6 1.6 0.00 0.00 0.00 96 1007.2
20260505093301 10 156 0.0 0.0 0.00 0.00 0.00 95 1007.0
20260505092757 10 156 0.0 1.6 0.00 0.00 0.00 95 1006.8
20260505092256 11 157 0.0 0.0 0.00 0.00 0.00 93 1006.8
20260505091753 11 155 1.6 1.6 0.00 0.00 0.00 89 1006.9
20260505091251 12 167 1.6 1.6 0.00 0.00 0.00 81 1006.9
20260505090748 12 238 4.8 6.4 0.00 0.00 0.00 72 1007.0
20260505090246 12 212 0.0 0.0 0.00 0.00 0.00 73 1006.7
20260505085743 12 212 0.0 0.0 0.00 0.00 0.00 72 1006.7
20260505085241 12 212 3.2 3.2 0.00 0.00 0.00 72 1006.6
20260505084738 12 212 0.0 0.0 0.00 0.00 0.00 71 1006.3
20260505084238 12 212 0.0 1.6 0.00 0.00 0.00 69 1006.6
20260505083734 12 212 0.0 1.6 0.00 0.00 0.00 70 1006.5
20260505083231 13 212 3.2 3.2 0.00 0.00 0.00 68 1006.3
20260505082726 13 213 1.6 1.6 0.00 0.00 0.00 66 1006.6
20260505082224 12 213 1.6 1.6 0.00 0.00 0.00 67 1006.4
20260505081720 12 213 0.0 0.0 0.00 0.00 0.00 71 1006.6
20260505081217 13 213 0.0 0.0 0.00 0.00 0.00 68 1006.3
20260505080714 13 213 0.0 0.0 0.00 0.00 0.00 66 1006.5
20260505080210 13 121 1.6 1.6 0.00 0.00 0.00 67 1006.3
20260505075706 13 108 1.6 3.2 0.00 0.00 0.00 66 1006.4
20260505075203 13 183 0.0 1.6 0.00 0.00 0.00 66 1006.6
20260505074700 13 144 1.6 3.2 0.00 0.00 0.00 66 1006.4
20260505074157 13 52 1.6 3.2 0.00 0.00 0.00 65 1006.5
20260505073655 13 51 1.6 1.6 0.00 0.00 0.00 65 1006.6
20260505073153 13 22 0.0 1.6 0.00 0.00 0.00 66 1006.6
20260505072648 13 22 1.6 1.6 0.00 0.00 0.00 65 1006.4
20260505072145 13 22 0.0 0.0 0.00 0.00 0.00 66 1006.4
20260505071640 13 359 0.0 0.0 0.00 0.00 0.00 66 1006.7
20260505071138 13 359 1.6 1.6 0.00 0.00 0.00 65 1006.6
20260505070635 13 359 0.0 0.0 0.00 0.00 0.00 64 1006.5
20260505070132 13 358 0.0 0.0 0.00 0.00 0.00 64 1006.4
20260505065627 13 87 1.6 3.2 0.00 0.00 0.00 62 1006.1
20260505065124 13 220 0.0 1.6 0.00 0.00 0.00 62 1006.3
20260505064621 13 245 0.0 1.6 0.00 0.00 0.00 63 1006.5
20260505064120 13 332 3.2 3.2 0.00 0.00 0.00 61 1006.5
20260505063617 13 183 1.6 3.2 0.00 0.00 0.00 61 1006.4
20260505063113 14 266 4.8 6.4 0.00 0.00 0.00 59 1006.4
20260505062609 14 205 3.2 6.4 0.00 0.00 0.00 60 1006.6
20260505062107 14 76 3.2 3.2 0.00 0.00 0.00 60 1006.6
20260505061604 14 229 3.2 3.2 0.00 0.00 0.00 60 1006.5
20260505061102 13 225 6.4 6.4 0.00 0.00 0.00 59 1006.5
20260505060559 14 225 1.6 1.6 0.00 0.00 0.00 60 1006.6
20260505060056 14 207 3.2 3.2 0.00 0.00 0.00 60 1006.5
20260505055551 14 225 4.8 4.8 0.00 0.00 0.00 57 1006.6
20260505055048 14 204 4.8 6.4 0.00 0.00 0.00 58 1006.1
20260505054545 13 201 0.0 0.0 0.00 0.00 0.00 61 1006.6
20260505054043 13 155 0.0 1.6 0.00 0.00 0.00 61 1006.5
20260505053540 13 222 8.0 9.7 0.00 0.00 0.00 59 1006.6
20260505053037 13 220 0.0 1.6 0.00 0.00 0.00 60 1006.5
20260505052533 13 143 3.2 3.2 0.00 0.00 0.00 60 1006.6
20260505052031 14 204 0.0 0.0 0.00 0.00 0.00 60 1006.5
20260505051528 14 232 4.8 4.8 0.00 0.00 0.00 58 1006.9
20260505051026 14 352 4.8 4.8 0.00 0.00 0.00 57 1006.7
20260505050524 14 213 3.2 4.8 0.00 0.00 0.00 58 1006.6
20260505041451 14 174 1.6 1.6 0.00 0.00 0.00 57 1006.6
20260505040949 15 145 1.6 1.6 0.00 0.00 0.00 57 1006.5
20260505040446 15 201 3.2 3.2 0.00 0.00 0.00 57 1006.8
20260505035943 15 253 4.8 6.4 0.00 0.00 0.00 56 1006.7
20260505035439 15 178 1.6 1.6 0.00 0.00 0.00 57 1006.7
20260505034936 15 164 0.0 1.6 0.00 0.00 0.00 55 1006.7
20260505034432 15 224 0.0 1.6 0.00 0.00 0.00 56 1006.8
20260505033930 15 186 3.2 4.8 0.00 0.00 0.00 55 1006.4
20260505033426 15 210 3.2 3.2 0.00 0.00 0.00 56 1006.5
20260505032924 15 184 3.2 4.8 0.00 0.00 0.00 55 1006.5
20260505032421 15 279 6.4 9.7 0.00 0.00 0.00 53 1006.8
20260505031918 15 202 3.2 4.8 0.00 0.00 0.00 53 1006.8
20260505031415 15 270 9.7 20.9 0.00 0.00 0.00 53 1006.7
20260505030912 15 274 3.2 4.8 0.00 0.00 0.00 52 1006.8
20260505030408 15 204 3.2 6.4 0.00 0.00 0.00 53 1006.8
20260505025903 15 155 1.6 1.6 0.00 0.00 0.00 54 1006.7
20260505025401 15 314 8.0 11.3 0.00 0.00 0.00 52 1006.7
20260505024900 15 247 4.8 4.8 0.00 0.00 0.00 52 1007.0
20260505024357 15 232 4.8 6.4 0.00 0.00 0.00 52 1006.9
20260505023853 15 201 1.6 3.2 0.00 0.00 0.00 53 1007.0
20260505023351 15 224 9.7 12.9 0.00 0.00 0.00 52 1007.0
20260505022848 15 205 3.2 4.8 0.00 0.00 0.00 52 1007.0
20260505022345 15 206 3.2 4.8 0.00 0.00 0.00 54 1007.0
20260505021842 15 173 1.6 1.6 0.00 0.00 0.00 54 1007.3
20260505021338 15 144 1.6 1.6 0.00 0.00 0.00 55 1007.2
20260505020834 15 178 3.2 3.2 0.00 0.00 0.00 55 1007.4
20260505020330 15 195 1.6 1.6 0.00 0.00 0.00 55 1007.2
20260505015827 15 174 4.8 4.8 0.00 0.00 0.00 54 1007.4
20260505015324 15 183 6.4 9.7 0.00 0.00 0.00 53 1007.4
20260505014821 15 186 1.6 1.6 0.00 0.00 0.00 54 1007.4
20260505014318 15 214 8.0 9.7 0.00 0.00 0.00 53 1007.3
20260505013815 15 204 0.0 0.0 0.00 0.00 0.00 54 1007.4
20260505013312 16 156 0.0 1.6 0.00 0.00 0.00 55 1007.3
20260505012811 15 192 3.2 4.8 0.00 0.00 0.00 53 1007.3
20260505012308 16 171 1.6 3.2 0.00 0.00 0.00 52 1007.4
20260505011803 15 246 3.2 4.8 0.00 0.00 0.00 52 1007.4
20260505011301 15 116 1.6 3.2 0.00 0.00 0.00 52 1007.0
20260505010756 15 161 1.6 3.2 0.00 0.00 0.00 54 1006.9
20260505010253 15 170 1.6 3.2 0.00 0.00 0.00 53 1006.9
20260505005749 15 194 0.0 0.0 0.00 0.00 0.00 52 1006.7
20260505005246 16 290 3.2 3.2 0.00 0.00 0.00 50 1006.5
20260505004743 16 201 1.6 1.6 0.00 0.00 0.00 51 1006.4
20260505004239 16 213 0.0 1.6 0.00 0.00 0.00 52 1006.5
20260505003737 16 209 1.6 1.6 0.00 0.00 0.00 50 1006.5
20260505003234 16 216 3.2 3.2 0.00 0.00 0.00 48 1006.5
20260505002730 16 205 3.2 3.2 0.00 0.00 0.00 50 1006.5
20260505002228 16 168 1.6 1.6 0.00 0.00 0.00 51 1006.4
20260505001725 16 202 1.6 3.2 0.00 0.00 0.00 50 1006.4
20260505001223 17 206 3.2 3.2 0.00 0.00 0.00 47 1006.2
20260505000720 17 224 3.2 3.2 0.00 0.00 0.00 48 1006.2
20260505000218 16 205 3.2 4.8 0.00 0.00 0.00 47 1006.0
20260504235714 17 206 1.6 1.6 0.00 0.00 0.00 48 1005.9
20260504235210 17 99 6.4 6.4 0.00 0.00 0.00 46 1005.8
20260504234708 17 227 6.4 9.7 0.00 0.00 0.00 47 1005.9
20260504234204 17 192 0.0 1.6 0.00 0.00 0.00 47 1005.8
20260504233700 17 86 1.6 3.2 0.00 0.00 0.00 45 1005.8
20260504233156 18 182 1.6 3.2 0.00 0.00 0.00 46 1005.5
20260504232654 18 123 4.8 6.4 0.00 0.00 0.00 43 1005.6
20260504232151 18 180 0.0 1.6 0.00 0.00 0.00 44 1005.6
20260504231648 18 152 0.0 1.6 0.00 0.00 0.00 44 1005.5
20260504231144 18 221 1.6 3.2 0.00 0.00 0.00 43 1005.5
20260504230640 18 202 1.6 3.2 0.00 0.00 0.00 43 1005.4
20260504230139 19 180 3.2 3.2 0.00 0.00 0.00 43 1005.6
20260504225637 19 287 9.7 11.3 0.00 0.00 0.00 40 1005.4
20260504225133 19 186 6.4 6.4 0.00 0.00 0.00 39 1005.2
20260504224630 19 164 8.0 9.7 0.00 0.00 0.00 39 1005.4
20260504224127 20 225 4.8 6.4 0.00 0.00 0.00 40 1005.2
20260504223624 20 180 1.6 1.6 0.00 0.00 0.00 40 1005.0
20260504223120 20 190 3.2 3.2 0.00 0.00 0.00 39 1005.0
20260504222617 20 180 3.2 4.8 0.00 0.00 0.00 38 1005.1
20260504222114 20 39 1.6 1.6 0.00 0.00 0.00 40 1005.1
20260504221611 20 171 3.2 3.2 0.00 0.00 0.00 41 1005.2
20260504221108 20 239 3.2 3.2 0.00 0.00 0.00 37 1005.1
20260504220604 20 235 4.8 6.4 0.00 0.00 0.00 36 1005.2
20260504215558 20 167 3.2 4.8 0.00 0.00 0.00 36 1005.2
20260504215055 20 227 4.8 6.4 0.00 0.00 0.00 36 1005.3
20260504214551 20 229 3.2 3.2 0.00 0.00 0.00 36 1005.3
20260504214048 20 205 1.6 3.2 0.00 0.00 0.00 36 1005.4
20260504213544 20 181 6.4 9.7 0.00 0.00 0.00 37 1005.6
20260504213041 20 233 4.8 6.4 0.00 0.00 0.00 37 1005.6
20260504212537 19 183 3.2 3.2 0.00 0.00 0.00 38 1005.5
20260504212035 19 221 3.2 4.8 0.00 0.00 0.00 38 1005.7
20260504211531 20 297 1.6 1.6 0.00 0.00 0.00 39 1005.5
20260504211028 20 238 1.6 1.6 0.00 0.00 0.00 38 1005.3
20260504210525 20 217 4.8 4.8 0.00 0.00 0.00 36 1005.4
20260504210022 20 204 6.4 9.7 0.00 0.00 0.00 36 1005.7
20260504205520 21 227 4.8 9.7 0.00 0.00 0.00 35 1005.6
20260504205018 20 201 3.2 3.2 0.00 0.00 0.00 37 1005.5
20260504204515 20 225 3.2 3.2 0.00 0.00 0.00 38 1005.7
20260504204014 20 202 4.8 6.4 0.00 0.00 0.00 36 1005.6
20260504203512 20 233 1.6 3.2 0.00 0.00 0.00 38 1005.5
20260504203009 20 341 6.4 9.7 0.00 0.00 0.00 35 1005.6
20260504202504 21 57 3.2 4.8 0.00 0.00 0.00 34 1005.7
20260504202001 21 210 3.2 4.8 0.00 0.00 0.00 36 1005.7
20260504201458 22 227 4.8 4.8 0.00 0.00 0.00 35 1005.7
20260504200956 22 285 9.7 11.3 0.00 0.00 0.00 31 1006.1
20260504200453 22 223 4.8 6.4 0.00 0.00 0.00 32 1005.8
20260504195949 22 229 4.8 6.4 0.00 0.00 0.00 34 1005.6
20260504195445 21 208 3.2 3.2 0.00 0.00 0.00 36 1005.7
20260504194942 21 250 6.4 6.4 0.00 0.00 0.00 33 1005.8
20260504194438 20 220 1.6 1.6 0.00 0.00 0.00 35 1005.9
20260504193934 21 197 4.8 4.8 0.00 0.00 0.00 35 1006.0
20260504193431 20 179 6.4 9.7 0.00 0.00 0.00 36 1006.0
20260504192930 20 204 1.6 1.6 0.00 0.00 0.00 36 1006.1
20260504192427 20 227 3.2 3.2 0.00 0.00 0.00 36 1006.0
20260504191926 20 188 1.6 3.2 0.00 0.00 0.00 37 1006.1
20260504191424 20 231 3.2 4.8 0.00 0.00 0.00 35 1006.0
20260504190919 20 219 3.2 4.8 0.00 0.00 0.00 34 1006.3
20260504190414 20 358 1.6 1.6 0.00 0.00 0.00 36 1006.4
20260504185911 21 244 4.8 4.8 0.00 0.00 0.00 34 1006.2
20260504185409 20 227 4.8 6.4 0.00 0.00 0.00 36 1006.4
20260504184904 21 216 3.2 3.2 0.00 0.00 0.00 34 1006.3